Terug naar catalogus

STARLINK-4397

ActiefCommunicatieSSO
NORAD 53205·PAYLOAD·🇺🇸 United States

Gelanceerd Jul 22, 2022 vanaf Vandenberg Space Force Base

Loading…

Volgende Passages (komende 24 uur)

TLE

VersSource: CelesTrak SupGP

Epoch: Sep 15, 2026, 01:48 UTC

1 53205C 22084S   26258.07548611  .00067580  00000+0  20978-2 0  2587
2 53205  97.2841 313.8864 0001450  87.3604 101.8837 15.33406125    18

Volg STARLINK-4397 in realtime met AllMySat

Download on the App Store